Погода в Майкопе

Погода в Майкопе : погода сейчас, прогноз погоды и архив. Всё, что Вы хотите узнать о погоде в Майкопе!

Поиск расширенной информации на нашем сайте:

Другие новости

Новости СМИ2

Главная страница сайта

Новости сайта

03.07.2017

Напоминаем, что на нашем специализированном сайте Метеоцентр.Азия вы можете получить высокодетализированные автоматические прогнозы погоды по пунктам России, СНГ и мира в авиационном формате (включающие направление и скорость ветра, видимость, явления погоды, количество и форму облачности, нижнюю и верхнюю границу облачности).

Рекомендуем: Права станут золотыми стоимость обучения обучение на права.

Погода в Майкопе - сегодня

Время (UTC), дата Ветер
(°,м/с) 
Видим.   Явления Облачность Т
(°С)
Тd
(°С)
f(%) Тe
(°С)
Pmin
(гПа)
dP
(гПа)
Po
(мм)
O2
(г/м3)
Тmin Tmax R s Состояние
почвы
06 15.08.17 130 (ЮВ) 20000 м    ясно 
+27 +18.5 60 +43  1011.2  740  267           
09 15.08.17 070 (В) 20000 м    3/3 1500 м 
[Cu hum]
+31.2 +17.8 45 +46  1010.2  -0.7  739  263           
12 15.08.17 090 (В) 20000 м  гроза без осадков  10/6 1000 м кучево-дожд., средняя 
[Cb calv|Ac cuf]
+28.3 +10.9 34 +31  1011.4  0.9  740  268           
15 15.08.17 140 (ЮВ) 20000 м  {гроза, ливн. осадки}  8/3 1000 м кучево-дожд., средняя, верхняя 
[Cb cap|Ac trans|Ci sp]
+23.7 +17.1 67 +37  1012.2  0.4  740  271    +32.8  0.3     
18 15.08.17 080 (В) 20000 м  {гроза, ливн. осадки}  ясно 
+21.3 +13.6 61 +28  1012.3  0.1  740  274           
21 15.08.17 090 (В) 20000 м    ясно 
+19.1 +16.5 85 +33  1012.3  -0.1  740  275           
00 16.08.17 040 (СВ) 20000 м    ясно 
+16.9 +15 89 +27  1011.9  -0.6  740  278           
03 16.08.17 тихо ()   20000 м    1/0 верхняя 
[Ci sp]
+15.3 +14.8 97 +24  1012.6  0.5  740  279  +14.7        сухая 
06 16.08.17 070 (В) 20000 м    1/0 верхняя 
[Ci sp]
+23.8 +15 58 +33  1012.2  0.3  740  271           
09 16.08.17 070 (В) 5{11}  20000 м    3/0 средняя, верхняя 
[Ac As|Ci sp]
+30 +10.1 29 +32  1011.4  -0.2  740  267           
12 16.08.17 060 (СВ) 4{11}  20000 м    6/1 1000 м средняя, верхняя 
[Cu med, cong|Ac As|Ci sp]
+31.4 +8.4 24 +31  1010.5  -0.8  740  266           
15 16.08.17 080 (В) 5{10}  20000 м    3/0 верхняя 
[Ci sp]
+30 +8.3 26 +30  1010.4  -0.2  739  267    +32       
18 16.08.17 070 (В) 20000 м    ясно 
+23.4 +11.2 46 +26  1011.4  0.5  740  272           
21 16.08.17 350 (С) 20000 м    ясно 
+18 +12.3 69 +24  1011.2  -0.6  739  277           
00 17.08.17 060 (СВ) 20000 м    ясно 
+18.1 +12.6 70 +25  1011  -0.2  739  277           
03 17.08.17 050 (СВ) 20000 м    3/0 средняя, верхняя 
[Ac As|Ci sp]
+17.8 +13.2 74 +25  1011.2  0.2  739  277  +16.8        сухая 
06 17.08.17 060 (СВ) 20000 м    10/0 средняя, верхняя 
[Ac trans|Ci sp]
+23.8 +14.4 56 +32  1010.8  0.2  739  271           
09 17.08.17 060 (СВ) 20000 м    9/3 1500 м средняя, верхняя 
[Cu hum|Ac trans|Ci sp]
+29.1 +16.2 46 +40  1010.4  740  266           
12 17.08.17 050 (СВ) 20000 м    8/3 1500 м верхняя 
[Cu hum|Ci sp]
+32.1 +14.9 35 +41  1008.8  -1.3  738  263           
15 17.08.17 090 (В) 20000 м    10/5 1000 м кучево-дожд., средняя 
[Cb cap|Ac und]
+30 +13.7 37 +37  1009.2  0.2  739  265    +32.4       
18 17.08.17 110 (В) 20000 м    10/0 средняя, верхняя 
[Ac trans|Ci sp]
+23.7 +17.1 67 +37  1010.2  0.5  739  270           
21 17.08.17 100 (В) 20000 м    10/0 средняя, верхняя 
[Ac trans|Ci sp]
+21.7 +16.3 71 +33  1010.1  0.5  739  272           
00 18.08.17 050 (СВ) 20000 м    3/0 верхняя 
[Ci sp]
+19.3 +13.8 70 +27  1010.5  0.1  739  275           
03 18.08.17 060 (СВ) 20000 м    3/0 средняя, верхняя 
[Ac trans|Ci sp]
+19 +15.1 78 +29  1011.6  0.1  740  275  +17.9        сухая 
06 18.08.17 070 (В) 20000 м    3/0 средняя 
[Ac trans]
+25.4 +15.6 55 +35  1012.6  1.6  741  270           
Время (UTC), дата Ветер
(°,м/с) 
Видим.   Явления Облачность Т
(°С)
Тd
(°С)
f(%) Тe
(°С)
Pmin
(гПа)
dP
(гПа)
Po
(мм)
O2
(г/м3)
Тmin Tmax R s Состояние
почвы

Для получения пояснительной информации подведите курсор к названию столбца.

ПОГОДА в Майкопе - архив

Всё, что Вы хотите узнать о погоде в Майкопе - удобно и подробно!

Выберите нужную дату (начиная с 1 января 2015* года) и нажмите кнопку "Найти".
Будут отображены архивные сводки погоды по пункту Майкоп, начиная с указанной даты.


Отображать данные в формате CSV (для использования в таблицах Excel)


Внимание! Наш архив погоды предназначен исключительно для личного некоммерческого использования в познавательных целях. Если Вам необходимы официальные справки о состоянии погоды (для производственных, юридических, коммерческих и т.п. целей), обращайтесь в органы Росгидромета.

*Примечание: данная дата относится к архиву по метеостанциям СССР (Россия, СНГ, Балтия).
Архив по метеостанциям Зарубежной Европы и Азии (кроме Китая) хранится 10 дней, по другим регионам земного шара (Китай, Африка, Америка, Австралия, Океания) - 1 день.

Майкоп - район местоположения метеостанции


Название, широта, долгота, высота метеостанции:
Майкоп 44.7°ш. 40.1°д. 207 м над ур. моря [Российская Федерация]

Дополнительная информация

В oтличие oт бoльшинства пoгoдных сайтoв мы публикуем пoдрoбную метеoинфoрмацию в детальнoм прoфессиoнальнoм фoрмате.

Характеристики температуры и влажнoсти вoздуха измеряются на высoте 2 м в тени вдали oт зданий и деревьев.
Скoрoсть ветра измеряется на высoте 10 м (на урoвне рoста челoвека скoрoсть ветра ниже в 1.5-2 раза). Если метеoстанция нахoдится в гoрoде или в лесу, тo скoрoсть ветра занижена на 2-4 м/с пo сравнению с oткрытым местoм. Скoрoсть ветра над акватoриями крупных рек и oзёр, а также на вершинах хoлмoв на 2-5 м/с выше, чем в oбычных услoвиях.
Атмoсфернoе давление в разных тoчках местнoсти мoжет значительнo oтличаться oт давления на метеoстанции, в зависимoсти oт услoвий рельефа (при пoдъёме на 10 м давление пoнижается примернo на 1 мм рт.ст.).